Regional Weather Roundup
Issued by NWS

Home | Current Version | Previous Version | Text Only | Print | Product List | Glossary Off
Versions: 1 2 3 4 5 6 7 8 9 10 11 12 13 14 15 16 17 18 19 20 21 22 23 24 25 26 27 28 29 30 31 32 33 34 35 36 37 38 39 40 41 42 43 44 45 46 47 48 49 50

000
ASUS44 KMEG 280710
RWRTN
TENNESSEE HOURLY STATE WEATHER ROUNDUP
NATIONAL WEATHER SERVICE MEMPHIS TN
200 AM CDT SAT MAY 28 2016

TNZ002-004-019-021-049-052-054-088>092-280800-
WEST TENNESSEE

CITY           SKY/WX    TMP DP  RH WIND       PRES   REMARKS
MEMPHIS INTL   CLOUDY    70  65  84 CALM      29.90R
NWS MEMPHIS      N/A     67 N/A N/A MISG        N/A
JACKSON        CLEAR     70  63  78 S3        29.92F
DYERSBURG      MOCLDY    70  64  83 CALM      29.91F
UNION CITY     CLEAR     70  66  88 S3        29.91F
PARIS          CLEAR     70  63  78 S6        29.95S
LEXINGTON      CLEAR     73  63  68 S5        29.94S
$$

TNZ008-025-027-028-033-062-065-066-280800-
NORTH MIDDLE TENNESSEE

CITY           SKY/WX    TMP DP  RH WIND       PRES   REMARKS
NASHVILLE      CLOUDY    73  63  70 SE6       30.00F
CLARKSVILLE    CLOUDY    69  64  84 SE5       29.96S
SMYRNA         CLOUDY    71  67  87 SE5       30.01F
COOKEVILLE     CLEAR     72  63  73 S6        30.04S
CROSSVILLE     CLEAR     70  59  68 VRB3      30.10S
$$

TNZ061-075-076-078-094-096-097-280800-
SOUTH MIDDLE TENNESSEE

CITY           SKY/WX    TMP DP  RH WIND       PRES   REMARKS
FAYETTEVILLE   MOCLDY    73  64  73 S7        30.02F
TULLAHOMA      CLEAR     70  70 100 S3        30.04F
WINCHESTER     CLEAR     70  64  83 SE6       30.04F
MCMINNVILLE    CLEAR     72  66  83 CALM      30.05S
COLUMBIA       CLEAR     72  72 100 S5        29.98S
SHELBYVILLE    CLEAR     72  70  94 SE5       30.03S
$$

TNZ017-018-042-046-047-280800-
NORTHEAST TENNESSEE

CITY           SKY/WX    TMP DP  RH WIND       PRES   REMARKS
TRI CITIES     FOG       61  60  97 CALM      30.13S VSB 3/4
$$

TNZ012-013-036-069-073-074-280800-
CENTRAL EAST TENNESSEE

CITY           SKY/WX    TMP DP  RH WIND       PRES   REMARKS
KNOXVILLE      FOG       65  65 100 NE3       30.08S VSB 1/4
OAK RIDGE      FOG       67  66  97 CALM      30.10S VSB 3/4
GATLINBURG     CLEAR     63  63 100 CALM      30.09S
$$

TNZ083-085-099-280800-
SOUTHEAST TENNESSEE

CITY           SKY/WX    TMP DP  RH WIND       PRES   REMARKS
CHATTANOOGA    PTCLDY    69  61  75 CALM      30.06S
$$

SKY/WX REPORTED AS FAIR MEANS FEW OR NO CLOUDS BELOW
12 THOUSAND FEET.





USA.gov is the U.S. government's official web portal to all federal, state and local government web resources and services.